• In Hungary
  • List of Countries
  • For 7 days
  • Water Temperature
  • Satellite Maps
  • Weather Map
  • News
  • Weather Widgets
  • user-avatar
    Login

    Hourly Weather Columbia

    Today, 24 October, Tuesday

    Time Temperature Precipitation Wind Pressure Humidity
    00:00 +22°C° 1.1 mm 7 mps 756 mmHg 83%
    01:00 +22°C° 1.1 mm 7 mps 756 mmHg 86%
    02:00 +22°C° 1.2 mm 7 mps 755 mmHg 87%
    03:00 +22°C° 1.2 mm 6 mps 755 mmHg 87%
    04:00 +22°C° 1.2 mm 5 mps 755 mmHg 88%
    05:00 +21°C° 0.3 mm 4 mps 755 mmHg 89%
    06:00 +21°C° 0.3 mm 4 mps 755 mmHg 90%
    07:00 +20°C° 0.3 mm 3 mps 755 mmHg 90%
    08:00 +21°C° 0.1 mm 4 mps 755 mmHg 83%
    09:00 +22°C° 0.1 mm 4 mps 755 mmHg 76%
    10:00 +23°C° 0.1 mm 5 mps 755 mmHg 69%
    11:00 +25°C° 0 mm 5 mps 754 mmHg 61%
    12:00 +26°C° 0 mm 5 mps 754 mmHg 53%
    13:00 +26°C° 0 mm 5 mps 754 mmHg 45%
    14:00 +26°C° 0 mm 5 mps 754 mmHg 47%
    15:00 +25°C° 0 mm 4 mps 753 mmHg 48%
    16:00 +25°C° 0 mm 4 mps 753 mmHg 50%
    17:00 +22°C° 0 mm 3 mps 754 mmHg 53%
    18:00 +21°C° 0 mm 3 mps 754 mmHg 57%
    19:00 +19°C° 0 mm 2 mps 755 mmHg 60%
    20:00 +19°C° 0 mm 2 mps 755 mmHg 60%
    21:00 +18°C° 0 mm 2 mps 756 mmHg 59%
    22:00 +17°C° 0 mm 3 mps 756 mmHg 59%
    23:00 +17°C° 0 mm 3 mps 756 mmHg 57%

    Tomorrow, 25 October, Wednesday

    Time Temperature Precipitation Wind Pressure Humidity
    00:00 +16°C° 0 mm 3 mps 756 mmHg 56%
    01:00 +14°C° 0 mm 4 mps 756 mmHg 55%
    02:00 +14°C° 0 mm 4 mps 756 mmHg 53%
    03:00 +13°C° 0 mm 4 mps 756 mmHg 52%
    04:00 +13°C° 0 mm 3 mps 756 mmHg 50%
    05:00 +13°C° 0 mm 3 mps 756 mmHg 50%
    06:00 +12°C° 0 mm 3 mps 757 mmHg 49%
    07:00 +13°C° 0 mm 2 mps 757 mmHg 49%
    08:00 +14°C° 0 mm 2 mps 757 mmHg 46%
    09:00 +14°C° 0 mm 3 mps 757 mmHg 44%
    10:00 +16°C° 0 mm 3 mps 757 mmHg 41%
    11:00 +17°C° 0 mm 3 mps 757 mmHg 39%
    12:00 +17°C° 0 mm 3 mps 756 mmHg 37%
    13:00 +18°C° 0 mm 3 mps 756 mmHg 34%
    14:00 +18°C° 0 mm 3 mps 755 mmHg 35%
    15:00 +18°C° 0 mm 3 mps 755 mmHg 36%
    16:00 +18°C° 0 mm 3 mps 755 mmHg 38%
    17:00 +16°C° 0 mm 3 mps 756 mmHg 42%
    18:00 +14°C° 0 mm 3 mps 757 mmHg 47%
    19:00 +13°C° 0 mm 3 mps 757 mmHg 52%
    20:00 +12°C° 0 mm 3 mps 758 mmHg 54%
    21:00 +11°C° 0 mm 3 mps 758 mmHg 56%
    22:00 +11°C° 0 mm 3 mps 759 mmHg 58%
    23:00 +10°C° 0 mm 3 mps 759 mmHg 59%

    Day after tomorrow, 26 October, Thursday

    Time Temperature Precipitation Wind Pressure Humidity
    00:00 +9°C° 0 mm 3 mps 759 mmHg 60%
    01:00 +9°C° 0 mm 2 mps 759 mmHg 61%
    02:00 +9°C° 0 mm 2 mps 759 mmHg 62%
    03:00 +8°C° 0 mm 2 mps 760 mmHg 62%
    04:00 +8°C° 0 mm 2 mps 760 mmHg 63%
    05:00 +8°C° 0 mm 2 mps 760 mmHg 63%
    06:00 +8°C° 0 mm 2 mps 761 mmHg 64%
    07:00 +8°C° 0 mm 2 mps 761 mmHg 64%
    08:00 +9°C° 0 mm 2 mps 762 mmHg 56%
    09:00 +12°C° 0 mm 2 mps 762 mmHg 49%
    10:00 +14°C° 0 mm 2 mps 762 mmHg 42%
    11:00 +16°C° 0 mm 2 mps 762 mmHg 40%
    12:00 +17°C° 0 mm 2 mps 762 mmHg 38%
    13:00 +18°C° 0 mm 2 mps 762 mmHg 37%
    14:00 +18°C° 0 mm 2 mps 762 mmHg 38%
    15:00 +18°C° 0 mm 2 mps 762 mmHg 40%
    16:00 +18°C° 0 mm 2 mps 762 mmHg 42%
    17:00 +17°C° 0 mm 2 mps 762 mmHg 45%
    18:00 +16°C° 0 mm 2 mps 763 mmHg 49%
    19:00 +15°C° 0 mm 2 mps 763 mmHg 53%
    20:00 +14°C° 0 mm 2 mps 763 mmHg 55%
    21:00 +14°C° 0 mm 2 mps 763 mmHg 57%
    22:00 +14°C° 0 mm 2 mps 764 mmHg 59%
    23:00 +13°C° 0 mm 2 mps 763 mmHg 61%

    27 October, Friday

    Time Temperature Precipitation Wind Pressure Humidity
    00:00 +13°C° 0 mm 2 mps 763 mmHg 63%
    01:00 +13°C° 0 mm 1 mps 763 mmHg 65%
    02:00 +12°C° 0 mm 2 mps 763 mmHg 66%
    03:00 +12°C° 0 mm 2 mps 763 mmHg 68%
    04:00 +12°C° 0 mm 2 mps 763 mmHg 69%
    05:00 +12°C° 0 mm 2 mps 763 mmHg 70%
    06:00 +12°C° 0 mm 2 mps 763 mmHg 71%
    07:00 +10°C° 0 mm 2 mps 764 mmHg 72%
    08:00 +13°C° 0 mm 2 mps 764 mmHg 65%
    09:00 +15°C° 0 mm 2 mps 764 mmHg 57%
    10:00 +17°C° 0 mm 2 mps 764 mmHg 50%
    11:00 +19°C° 0 mm 2 mps 763 mmHg 47%
    12:00 +20°C° 0 mm 3 mps 763 mmHg 44%
    13:00 +22°C° 0 mm 3 mps 762 mmHg 40%
    14:00 +22°C° 0 mm 3 mps 762 mmHg 42%
    15:00 +22°C° 0 mm 3 mps 762 mmHg 43%
    16:00 +21°C° 0 mm 3 mps 762 mmHg 45%
    17:00 +20°C° 0 mm 3 mps 762 mmHg 50%
    18:00 +18°C° 0 mm 3 mps 762 mmHg 55%
    19:00 +17°C° 0 mm 3 mps 762 mmHg 60%
    20:00 +16°C° 0 mm 3 mps 763 mmHg 64%
    21:00 +16°C° 0 mm 3 mps 763 mmHg 67%
    22:00 +14°C° 0 mm 3 mps 763 mmHg 70%
    23:00 +14°C° 0 mm 3 mps 762 mmHg 73%

    28 October, Saturday

    Time Temperature Precipitation Wind Pressure Humidity
    00:00 +13°C° 0 mm 3 mps 762 mmHg 75%
    01:00 +14°C° 0 mm 2 mps 762 mmHg 78%
    02:00 +14°C° 0 mm 2 mps 762 mmHg 79%
    03:00 +13°C° 0 mm 2 mps 762 mmHg 81%
    04:00 +13°C° 0 mm 2 mps 762 mmHg 82%
    05:00 +13°C° 0 mm 2 mps 762 mmHg 83%
    06:00 +13°C° 0 mm 2 mps 762 mmHg 84%
    07:00 +12°C° 0 mm 1 mps 762 mmHg 84%
    08:00 +14°C° 0 mm 1 mps 761 mmHg 75%
    09:00 +16°C° 0 mm 2 mps 761 mmHg 67%
    10:00 +18°C° 0 mm 2 mps 761 mmHg 58%
    11:00 +19°C° 0 mm 2 mps 760 mmHg 54%
    12:00 +21°C° 0 mm 2 mps 759 mmHg 50%
    13:00 +23°C° 0 mm 2 mps 759 mmHg 45%
    14:00 +23°C° 0 mm 2 mps 758 mmHg 47%
    15:00 +21°C° 0 mm 2 mps 758 mmHg 48%
    16:00 +21°C° 0 mm 2 mps 757 mmHg 50%
    17:00 +20°C° 0 mm 2 mps 757 mmHg 55%
    18:00 +19°C° 0 mm 2 mps 758 mmHg 59%
    19:00 +18°C° 0 mm 2 mps 758 mmHg 64%
    20:00 +17°C° 0.1 mm 2 mps 757 mmHg 68%
    21:00 +17°C° 0.1 mm 3 mps 757 mmHg 72%
    22:00 +16°C° 0.1 mm 3 mps 757 mmHg 76%
    23:00 +14°C° 0.8 mm 3 mps 757 mmHg 79%

    29 October, Sunday

    Time Temperature Precipitation Wind Pressure Humidity
    00:00 +13°C° 0.8 mm 3 mps 756 mmHg 82%
    01:00 +12°C° 0.8 mm 3 mps 756 mmHg 84%
    02:00 +11°C° 1.8 mm 4 mps 755 mmHg 85%
    03:00 +10°C° 1.8 mm 4 mps 755 mmHg 85%
    04:00 +9°C° 1.8 mm 5 mps 755 mmHg 86%
    05:00 +8°C° 0.5 mm 5 mps 755 mmHg 85%
    06:00 +8°C° 0.5 mm 5 mps 754 mmHg 85%
    07:00 +8°C° 0.5 mm 5 mps 754 mmHg 84%
    08:00 +9°C° 0 mm 5 mps 754 mmHg 81%
    09:00 +9°C° 0 mm 5 mps 754 mmHg 78%
    10:00 +10°C° 0 mm 5 mps 753 mmHg 75%
    11:00 +9°C° 0.5 mm 5 mps 753 mmHg 76%
    12:00 +9°C° 0.5 mm 5 mps 752 mmHg 77%
    13:00 +9°C° 0.5 mm 5 mps 752 mmHg 79%
    14:00 +8°C° 0.9 mm 5 mps 752 mmHg 80%
    15:00 +8°C° 0.9 mm 5 mps 751 mmHg 81%
    16:00 +8°C° 0.9 mm 5 mps 751 mmHg 83%
    17:00 +8°C° 0.3 mm 5 mps 751 mmHg 82%
    18:00 +8°C° 0.3 mm 5 mps 751 mmHg 82%
    19:00 +8°C° 0.3 mm 6 mps 751 mmHg 82%
    20:00 +7°C° 0.2 mm 6 mps 751 mmHg 80%
    21:00 +7°C° 0.2 mm 6 mps 751 mmHg 79%
    22:00 +5°C° 0.2 mm 6 mps 751 mmHg 78%
    23:00 +5°C° 0.1 mm 6 mps 751 mmHg 76%

    30 October, Monday

    Time Temperature Precipitation Wind Pressure Humidity
    00:00 +4°C° 0.1 mm 6 mps 751 mmHg 73%
    01:00 +4°C° 0.1 mm 6 mps 751 mmHg 70%
    02:00 +4°C° 0 mm 6 mps 751 mmHg 70%
    03:00 +4°C° 0 mm 6 mps 752 mmHg 70%
    04:00 +3°C° 0 mm 6 mps 752 mmHg 70%
    05:00 +3°C° 0 mm 6 mps 752 mmHg 68%
    06:00 +3°C° 0 mm 6 mps 753 mmHg 67%
    07:00 +3°C° 0 mm 6 mps 753 mmHg 65%
    08:00 +4°C° 0 mm 6 mps 753 mmHg 58%
    09:00 +6°C° 0 mm 7 mps 754 mmHg 51%
    10:00 +8°C° 0 mm 7 mps 754 mmHg 44%
    11:00 +9°C° 0 mm 7 mps 754 mmHg 42%
    12:00 +9°C° 0 mm 7 mps 754 mmHg 40%
    13:00 +10°C° 0 mm 7 mps 754 mmHg 38%
    14:00 +10°C° 0 mm 7 mps 755 mmHg 39%
    15:00 +10°C° 0 mm 6 mps 755 mmHg 40%
    16:00 +9°C° 0 mm 6 mps 756 mmHg 41%
    17:00 +8°C° 0 mm 5 mps 757 mmHg 45%
    18:00 +8°C° 0 mm 4 mps 758 mmHg 48%
    19:00 +7°C° 0 mm 4 mps 759 mmHg 52%
    Show more